Home   Weather   Eskilstuna   Past weeks

Flag for Sweden Past Weather in Eskilstuna, Sweden — Yesterday and Last 2 Weeks

Now
36 °F

Partly sunny.


Feels Like: 27 °F
Forecast: 31 / 48 °F
Wind: 12 mph from Northwest

Location: Vasteras / Hasslo

Current Time: Apr 26, 2017 at 8:09:09 am

Latest Report: Apr 26, 2017 at 7:20 am


Visibility: N/A

Pressure: 29.56 "Hg

Humidity: 81%

Dew Point: 30 °F

Location of EskilstunaLocation

Past Weather in Eskilstuna — Graph

°F

Eskilstuna Temperature Yesterday

Maximum temperature yesterday: 41 °F (at 4:20 pm)
Minimum temperature yesterday: 34 °F (at 4:20 am)
Average temperature yesterday: 37 °F

High & Low Weather Summary for the Past Weeks

 TemperatureHumidityPressure
High55 °F (Apr 21, 12:20 pm)100% (Apr 24, 9:50 pm)30.54 "Hg (Apr 24, 9:50 pm)
Low16 °F (Apr 15, 6:20 am)21% (Apr 22, 4:50 pm)29.24 "Hg (Apr 25, 4:20 am)
Average36 °F63%29.82 "Hg
* Reported Apr 11 6:20 am — Apr 26 6:50 am, Eskilstuna, Weather by CustomWeather, © 2017

Note: Actual official high and low records may vary slightly from our data, if they occured in-between our weather recording intervals... More about our weather records

Advertising

Eskilstuna Weather History for the Previous 24 Hours

Scroll right to see more
 ConditionsComfort  
Time TempWeatherWind HumidityBarometerVisibility
6:50 am
Wed, Apr 26
36 °FPartly sunny.8 mph81%29.53 "HgN/A
6:20 am36 °FPartly sunny.8 mph81%29.53 "HgN/A
5:50 am34 °FBroken clouds.6 mph87%29.53 "HgN/A
5:20 am34 °FBroken clouds.8 mph87%29.50 "HgN/A
4:50 am34 °FPassing clouds.8 mph87%29.50 "HgN/A
4:20 am34 °FPassing clouds.9 mph81%29.50 "HgN/A
3:50 am34 °FPassing clouds.12 mph81%29.47 "HgN/A
3:20 am34 °FPassing clouds.10 mph87%29.47 "HgN/A
2:50 am34 °FPassing clouds.15 mph87%29.47 "HgN/A
2:20 am34 °FOvercast.16 mph87%29.45 "HgN/A
1:50 am36 °FMostly cloudy.15 mph81%29.45 "HgN/A
1:20 am36 °FOvercast.14 mph81%29.45 "HgN/A
12:50 am36 °FMostly cloudy.17 mph81%29.45 "HgN/A
12:20 am36 °FPartly cloudy.15 mph81%29.45 "HgN/A
11:50 pm
Tue, Apr 25
36 °FMostly cloudy.14 mph81%29.42 "HgN/A
11:20 pm36 °FPassing clouds.16 mph81%29.42 "HgN/A
10:50 pm36 °FMostly cloudy.16 mph87%29.42 "HgN/A
10:20 pm36 °FOvercast.15 mph87%29.42 "HgN/A
9:50 pm36 °FPartly cloudy.12 mph87%29.42 "HgN/A
9:20 pm36 °FPartly cloudy.17 mph87%29.42 "HgN/A
8:50 pm36 °FPartly cloudy.16 mph87%29.39 "HgN/A
8:20 pm36 °FPassing clouds.15 mph87%29.39 "HgN/A
7:50 pm37 °FScattered clouds.15 mph81%29.39 "HgN/A
7:20 pm37 °FBroken clouds.16 mph87%29.39 "HgN/A
6:50 pm39 °FBroken clouds.15 mph87%29.36 "HgN/A
6:20 pm37 °FBroken clouds.7 mph93%29.36 "HgN/A
5:50 pm36 °FBroken clouds.9 mph93%29.36 "HgN/A
5:20 pm37 °FRain. Broken clouds.6 mph87%29.36 "Hg4 mi
4:50 pm37 °FLight rain. Broken clouds.3 mph87%29.36 "Hg6 mi
4:20 pm41 °FSprinkles. Broken clouds.7 mph81%29.33 "HgN/A
3:50 pm37 °FBroken clouds.8 mph87%29.33 "HgN/A
3:20 pm39 °FPartly sunny.8 mph81%29.33 "HgN/A
2:50 pm39 °FPartly sunny.8 mph75%29.33 "HgN/A
2:20 pm39 °FPartly sunny.9 mph81%29.33 "HgN/A
1:50 pm39 °FPartly sunny.8 mph81%29.33 "HgN/A
1:20 pm37 °FDrizzle. Partly sunny.7 mph87%29.33 "HgN/A
12:50 pm37 °FPartly sunny.5 mph87%29.30 "HgN/A
12:20 pm37 °FDrizzle. Partly sunny.7 mph87%29.30 "HgN/A
11:50 am37 °FLight rain. Partly sunny.3 mph87%29.30 "Hg5 mi
11:20 am36 °FLight rain. Partly sunny.3 mph87%29.30 "Hg3 mi
10:50 am37 °FLight rain. Partly sunny.7 mph87%29.30 "Hg4 mi
10:20 am37 °FLight rain. Partly sunny.8 mph87%29.30 "HgN/A
9:50 am37 °FLight rain. Partly sunny.10 mph87%29.30 "HgN/A
9:20 am36 °FLight rain. Partly sunny.10 mph87%29.27 "HgN/A
8:50 am36 °FLight snow. Partly sunny.12 mph87%29.27 "HgN/A
8:20 am36 °FLight rain. Broken clouds.10 mph87%29.27 "HgN/A
Weather by CustomWeather, © 2017

See weather overviewHow to use our weather pages